749  
ASUS41 KRLX 242010  
RWRRLX  
WEST VIRGINIA REGIONAL WEATHER ROUNDUP  
NATIONAL WEATHER SERVICE CHARLESTON WV  
400 PM EDT MON APR 24 2017  
 
NOTE: "FAIR" INDICATES FEW OR NO CLOUDS BELOW 12,000 FEET WITH NO  
SIGNIFICANT WEATHER AND/OR S TO VISIBILITY
.  
 
WVZ003-242100-  
NORTHERN PANHANDLE OF WEST VIRGINIA  
 
CITY SKY/WX TMP DP RH WIND PRES REMARKS
 
WHEELING CLOUDY 58 41 53 E18 29.99F  

 
 
WVZ009-242100-  
NORTHWEST WEST VIRGINIA  
 
CITY SKY/WX TMP DP RH WIND PRES REMARKS
 
PARKERSBURG LGT RAIN 59 50 72 E12 29.95F  

 
 
WVZ006-242100-  
WESTERN WEST VIRGINIA  
 
CITY SKY/WX TMP DP RH WIND PRES REMARKS
 
HUNTINGTON CLOUDY 61 52 72 NE10 29.87F  

 
 
WVZ015-242100-  
WEST CENTRAL WEST VIRGINIA  
 
CITY SKY/WX TMP DP RH WIND PRES REMARKS
 
CHARLESTON CLOUDY 62 51 67 NE9 29.87F  

 
 
WVZ022-031-242100-  
NORTH CENTRAL WEST VIRGINIA  
 
CITY SKY/WX TMP DP RH WIND PRES REMARKS
 
CLARKSBURG LGT RAIN 56 48 74 E10 29.96F  
MORGANTOWN CLOUDY 57 41 55 E8G18 29.99F  

 
 
WVZ025-035-042-045-242100-  
SOUTHERN WEST VIRGINIA  
 
CITY SKY/WX TMP DP RH WIND PRES REMARKS
 
BECKLEY CLOUDY 52 48 86 E10 29.88F  
LOGAN CLOUDY 61 50 67 VRB5 29.86F  
BLUEFIELD CLOUDY 49 46 90 E9G16 29.87F  
LEWISBURG DRIZZLE 53 48 85 E9 29.89F  

 
 
WVZ047-242100-  
NORTHERN MOUNTAINS OF WEST VIRGINIA  
 
CITY SKY/WX TMP DP RH WIND PRES REMARKS
 
ELKINS CLOUDY 54 43 66 SE8 29.96F  

 
 
WVZ052-242100-  
EASTERN PANHANDLE OF WEST VIRGINIA  
 
CITY SKY/WX TMP DP RH WIND PRES REMARKS
 
MARTINSBURG LGT RAIN 59 46 62 NE6 30.02F  
PETERSBURG LGT RAIN 52 49 90 N5 30.03S  

 
 
 
CLICK HERE TO GO TO PREVIOUS BULLETINS.

The Nexlab WV Page
The Nexlab OH Page
The Nexlab KY Page
The Nexlab VA Page Main Text Page